Weather History for Ely, NV

Change the Weather History Date:

Sunday, August 4, 2013

  Actual Average Record
Temperature  
Mean Temperature 70 °F 68 °F  
Max Temperature 90 °F 88 °F 95 °F (1978)
Min Temperature 50 °F 49 °F 35 °F (1944)
Degree Days  
Heating Degree Days 0 0  
Month to date heating degree days 1 0  
Since 1 June heating degree days 101 198  
Since 1 July heating degree days 6 23  
Cooling Degree Days 5 4  
Month to date cooling degree days 11 16  
Year to date cooling degree days 279 151  
Since 1 June cooling degree days 279 150  
Growing Degree Days 20 (Base 50)    
Moisture  
Dew Point 24 °F    
Average Humidity 19    
Maximum Humidity 29    
Minimum Humidity 9    
Precipitation  
Precipitation 0.00 in 0.04 in 0.90 in (1973)
Month to date precipitation 0.00 0.13  
Year to date precipitation 3.36 5.87  
Snow  
Snow 0.00 in 0.00 in 0.00 in (1893)
Month to date snowfall 0.0 0.0  
Since 1 June snowfall 0.0 0.1  
Since 1 July snowfall 0.0 0.0  
Snow Depth 0.00 in    
Sea Level Pressure  
Sea Level Pressure 29.90 in    
Wind  
Wind Speed 10 mph (SSW)    
Max Wind Speed 21 mph    
Max Gust Speed 26 mph    
Visibility 10 miles    
Events      
T = Trace of Precipitation, MM = Missing Value Source: NWS Daily Summary

Daily Weather History Graph

Daily Weather History Graph

Search for Another Location

Airport:

Trip Planner

Search our weather history database for the weather conditions in past years. The results will help you decide how hot, cold, wet, or windy it might be!

Date:

Astronomy

Aug. 04, 2013 Rise Set
Actual Time 5:42 AM PDT 7:47 PM PDT
Civil Twilight 5:12 AM PDT 8:17 PM PDT
Nautical Twilight 4:36 AM PDT 8:53 PM PDT
Astronomical Twilight 3:57 AM PDT 9:32 PM PDT
Moon 3:47 AM PDT (8/4) 6:13 PM PDT (8/4)
Length of Visible Light 15h 04m
Length of Day
14h 05m
Waning Crescent, 4% of the Moon is Illuminated
Aug 4
Waning Crescent
Aug 6
New
Aug 14
First Quarter
Aug 20
Full
Aug 28
Last Quarter

Hourly Weather History & Observations

Time (PDT) Temp. Dew Point Humidity Pressure Visibility Wind Dir Wind Speed Gust Speed Precip Events Conditions
12:53 AM 55.9 °F 21.0 °F 26% 29.90 in 10.0 mi South 12.7 mph - N/A   Clear
1:53 AM 63.0 °F 19.0 °F 18% 29.87 in 10.0 mi SSW 13.8 mph - N/A   Clear
2:53 AM 52.0 °F 19.0 °F 27% 29.90 in 10.0 mi South 12.7 mph - N/A   Clear
3:53 AM 51.1 °F 19.9 °F 29% 29.91 in 10.0 mi South 11.5 mph - N/A   Clear
4:53 AM 59.0 °F 17.1 °F 20% 29.90 in 10.0 mi South 12.7 mph - N/A   Clear
5:53 AM 50.0 °F 18.0 °F 28% 29.95 in 10.0 mi SE 9.2 mph - N/A   Clear
6:53 AM 54.0 °F 18.0 °F 24% 29.96 in 10.0 mi SSE 9.2 mph - N/A   Clear
7:53 AM 71.1 °F 19.0 °F 14% 29.94 in 10.0 mi South 5.8 mph - N/A   Clear
8:53 AM 79.0 °F 18.0 °F 10% 29.92 in 10.0 mi South 12.7 mph - N/A   Clear
9:53 AM 81.0 °F 17.1 °F 9% 29.91 in 10.0 mi WSW 9.2 mph - N/A   Clear
10:53 AM 82.9 °F 21.0 °F 10% 29.91 in 10.0 mi South 16.1 mph 21.9 mph N/A   Clear
11:53 AM 82.0 °F 21.0 °F 10% 29.94 in 10.0 mi WSW 9.2 mph 24.2 mph N/A   Clear
12:24 PM 84.2 °F 21.2 °F 10% 30.23 in 10.0 mi South 13.8 mph 21.9 mph N/A   Clear
12:53 PM 84.0 °F 21.9 °F 10% 29.92 in 10.0 mi SW 4.6 mph - N/A   Clear
1:53 PM 84.9 °F 23.0 °F 10% 29.88 in 10.0 mi SW 11.5 mph 18.4 mph N/A   Clear
2:53 PM 87.1 °F 25.0 °F 10% 29.88 in 10.0 mi Variable 3.5 mph 19.6 mph N/A   Clear
3:53 PM 86.0 °F 26.1 °F 11% 29.86 in 10.0 mi SSW 8.1 mph - N/A   Clear
4:53 PM 87.1 °F 25.0 °F 10% 29.82 in 10.0 mi SW 12.7 mph 16.1 mph N/A   Clear
5:53 PM 88.0 °F 27.0 °F 11% 29.83 in 10.0 mi WSW 10.4 mph - N/A   Clear
6:53 PM 82.0 °F 30.9 °F 16% 29.85 in 10.0 mi South 10.4 mph 23.0 mph N/A   Clear
7:53 PM 78.1 °F 33.1 °F 19% 29.82 in 10.0 mi SSE 10.4 mph - N/A   Clear
8:53 PM 73.9 °F 33.1 °F 22% 29.83 in 10.0 mi SSE 10.4 mph - N/A   Clear
9:53 PM 70.0 °F 33.1 °F 26% 29.85 in 10.0 mi South 10.4 mph - N/A   Clear
10:53 PM 66.0 °F 34.0 °F 30% 29.86 in 10.0 mi South 9.2 mph - N/A   Clear
11:53 PM 66.9 °F 33.1 °F 28% 29.87 in 10.0 mi SSW 11.5 mph - N/A   Clear